Tracking 26955 objects as of 3-Feb-2023
HD Live streaming from Space Station
objects crossing your sky now

DELTA 1 DEB

Track DELTA 1 DEB now!
10-day predictions


NORAD ID: 21319
Int'l Code: 1975-052AM
Perigee: 1,066.9 km
Apogee: 1,424.9 km
Inclination: 99.7 °
Period: 110.3 minutes
Semi major axis: 7616 km
RCS: 0.0592 m2 (small)
Launch date: June 12, 1975
Source: United States (US)
Launch site: AIR FORCE WESTERN TEST RANGE (AFWTR)

Note: This is SATELLITE DEBRIS
Your satellite tracking list
Your tracking list is empty




NASA's NSSDC Master Catalog

Two Line Element Set (TLE):
1 21319U 75052AM  23033.36284142 -.00000080  00000-0 -11334-3 0  9991
2 21319  99.7223 308.6234 0235007 154.3815 331.9002 13.05981752509485
Source of the keplerian elements: AFSPC